DW8016 Weather Reports


Display with metric or nautical units.
time (UTC)temp
F
wind
direction
speed
MPH
gust
MPH
rain 1hr
in
rain 24hr
in
rain mn
in
humidity
%
barometer
mb
20260507035838 63 304 0.0 0.0 0.00 0.31 0.31 77 1009.3
20260507033629 64 304 0.0 4.0 0.00 0.31 0.31 73 1009.0
20260507030421 65 329 0.0 1.0 0.00 0.31 0.31 73 1008.5
20260507025353 65 16 0.0 6.0 0.00 0.31 0.31 72 1008.4
20260507023221 66 355 1.0 5.0 0.00 0.31 0.31 74 1008.5
20260507022235 66 350 0.0 5.0 0.00 0.31 0.31 76 1008.2
20260507021216 67 351 0.0 0.0 0.00 0.31 0.31 78 1008.2
20260507020239 67 351 1.0 5.0 0.00 0.31 0.31 76 1008.0
20260507014201 68 0 0.0 4.0 0.00 0.31 0.31 79 1007.8
20260507013159 69 262 0.0 0.0 0.00 0.31 0.31 81 1008.0
20260507012131 69 262 0.0 0.0 0.00 0.31 0.31 81 1008.1
20260507011102 69 262 0.0 0.0 0.00 0.31 0.31 81 1008.0
20260507003931 69 262 0.0 0.0 0.00 0.31 0.31 79 1007.7
20260507002923 69 262 0.0 0.0 0.00 0.31 0.31 78 1007.7
20260507001919 70 262 0.0 0.0 0.00 0.31 0.31 78 1007.5
20260507000921 70 262 0.0 0.0 0.00 0.31 0.31 77 1007.5
20260506234725 70 262 0.0 0.0 0.00 0.31 0.31 76 1007.4
20260506232618 71 262 0.0 3.0 0.00 0.31 0.31 74 1007.1
20260506231615 71 240 0.0 3.0 0.00 0.31 0.31 75 1007.0
20260506230553 71 240 0.0 1.0 0.00 0.31 0.31 74 1007.0
20260506225557 71 190 0.0 4.0 0.00 0.31 0.31 74 1006.9
20260506224534 71 277 0.0 1.0 0.00 0.31 0.31 74 1006.8
20260506223554 71 222 1.0 7.0 0.00 0.31 0.31 73 1006.8
20260506222601 71 212 1.0 11.0 0.00 0.31 0.31 73 1006.8
20260506221554 72 207 4.0 11.0 0.00 0.31 0.31 72 1006.6
20260506220609 72 246 2.0 9.0 0.00 0.31 0.31 72 1006.6
20260506215548 72 192 3.0 11.0 0.00 0.31 0.31 72 1006.7
20260506214551 72 245 3.0 13.0 0.00 0.31 0.31 73 1006.7
20260506213546 72 267 4.0 13.0 0.00 0.31 0.31 73 1006.7
20260506212600 72 230 3.0 12.0 0.00 0.31 0.31 72 1006.7
20260506211528 73 271 4.0 12.0 0.00 0.31 0.31 71 1006.6
20260506210516 72 265 4.0 9.0 0.00 0.31 0.31 71 1006.6
20260506205450 72 167 4.0 12.0 0.00 0.31 0.31 71 1006.0
20260506204458 72 241 3.0 12.0 0.00 0.31 0.31 71 1006.3
20260506203447 72 213 3.0 11.0 0.00 0.31 0.31 71 1006.1
20260506202433 72 257 5.0 11.0 0.00 0.31 0.31 72 1006.2
20260506201402 72 196 4.0 10.0 0.00 0.31 0.31 71 1006.3
20260506200425 71 286 5.0 13.0 0.00 0.31 0.31 73 1006.4
20260506195437 71 124 5.0 13.0 0.00 0.31 0.31 72 1006.4
20260506194415 71 196 5.0 13.0 0.00 0.31 0.31 72 1006.4
20260506193355 71 209 6.0 17.0 0.00 0.31 0.31 73 1006.5
20260506192416 71 207 5.0 17.0 0.00 0.31 0.31 74 1006.4
20260506190312 70 259 5.0 14.0 0.00 0.31 0.31 75 1006.7
20260506185250 69 222 3.0 14.0 0.00 0.31 0.31 75 1006.8
20260506184216 69 203 3.0 14.0 0.00 0.31 0.31 76 1006.8
20260506183213 69 238 3.0 12.0 0.00 0.31 0.31 77 1006.9
20260506182224 69 197 5.0 13.0 0.00 0.31 0.31 75 1007.0
20260506180137 69 162 4.0 11.0 0.00 0.31 0.31 76 1007.3
20260506175103 69 240 4.0 15.0 0.00 0.31 0.31 78 1007.2
20260506171843 67 277 4.0 18.0 0.00 0.31 0.31 80 1007.4
20260506165658 66 182 5.0 17.0 0.00 0.31 0.31 81 1007.5
20260506164707 66 212 5.0 15.0 0.00 0.31 0.31 83 1007.5
20260506163658 65 190 5.0 15.0 0.00 0.31 0.31 85 1007.5
20260506162652 65 271 5.0 18.0 0.00 0.31 0.31 87 1007.7
20260506161632 64 229 6.0 18.0 0.00 0.31 0.31 89 1007.6
20260506160647 64 172 5.0 20.0 0.00 0.31 0.31 90 1007.8
20260506155705 63 246 6.0 23.0 0.00 0.31 0.31 90 1007.7
20260506154652 63 161 6.0 23.0 0.00 0.31 0.31 90 1007.7
20260506153641 62 243 5.0 14.0 0.04 0.31 0.31 91 1008.0
20260506152702 62 153 5.0 17.0 0.04 0.31 0.31 91 1008.1
20260506151651 62 228 5.0 17.0 0.09 0.29 0.30 91 1008.0
20260506145530 62 175 4.0 10.0 0.04 0.26 0.26 91 1008.4
20260506144815 62 177 4.0 10.0 0.04 0.24 0.25 91 1008.6
20260506142112 61 221 3.0 8.0 0.08 0.23 0.23 91 1008.8
20260506141101 61 193 3.0 11.0 0.12 0.21 0.21 90 1008.6
20260506134854 62 269 2.0 11.0 0.17 0.14 0.15 89 1008.8
20260506133903 62 189 3.0 10.0 0.19 0.12 0.13 88 1008.9
20260506132921 62 227 3.0 9.0 0.21 0.09 0.09 87 1009.0
20260506131940 63 203 3.0 9.0 0.31 0.04 0.06 86 1009.1
20260506131000 63 267 3.0 9.0 0.00 0.02 0.03 85 1009.2
20260506130021 63 172 2.0 8.0 0.00 0.02 0.02 85 1008.7
20260506123836 63 172 2.0 9.0 0.04 0.02 0.02 84 1008.3
20260506122847 64 196 3.0 11.0 0.10 0.02 0.02 83 1008.4
20260506121907 64 192 4.0 11.0 0.00 0.01 0.01 81 1008.6
20260506120932 64 180 2.0 8.0 0.00 0.00 0.00 79 1008.8
20260506115944 65 215 2.0 10.0 0.00 0.00 0.00 78 1009.0
20260506114910 65 220 2.0 10.0 0.00 0.00 0.00 76 1008.9
20260506111624 66 180 4.0 12.0 0.00 0.00 0.00 72 1008.3
20260506110602 66 176 4.0 10.0 0.00 0.00 0.00 71 1008.2
20260506105611 66 153 4.0 14.0 0.00 0.00 0.00 71 1008.1
20260506102341 67 216 4.0 14.0 0.00 0.00 0.00 68 1008.0
20260506101322 67 216 5.0 13.0 0.00 0.00 0.00 68 1008.0
20260506100308 67 247 3.0 11.0 0.00 0.00 0.00 67 1007.9
20260506095234 67 192 3.0 11.0 0.00 0.00 0.00 67 1008.0
20260506094225 67 247 4.0 10.0 0.00 0.00 0.00 67 1007.9
20260506093210 67 208 5.0 15.0 0.00 0.00 0.00 66 1007.9
20260506092219 67 189 5.0 15.0 0.00 0.00 0.00 66 1007.9
20260506091227 67 140 5.0 14.0 0.00 0.00 0.00 66 1008.1
20260506085105 68 210 7.0 15.0 0.00 0.00 0.00 65 1008.1
20260506084109 68 213 5.0 15.0 0.00 0.00 0.00 65 1008.2
20260506083119 68 162 5.0 15.0 0.00 0.00 0.00 64 1008.2
20260506080956 69 167 6.0 18.0 0.00 0.00 0.00 64 1008.3
20260506072930 69 171 5.0 15.0 0.00 0.00 0.00 62 1008.1
20260506071915 70 171 6.0 15.0 0.00 0.00 0.00 61 1008.1
20260506070853 70 234 5.0 10.0 0.00 0.00 0.00 60 1008.4
20260506061902 72 217 4.0 17.0 0.00 0.00 0.00 55 1008.6
20260506060848 72 190 5.0 17.0 0.00 0.00 0.00 55 1008.6
20260506050841 73 234 6.0 13.0 0.00 0.00 0.00 52 1009.0
20260506044828 73 172 6.0 14.0 0.00 0.00 0.00 52 1009.1
20260506042733 73 180 5.0 15.0 0.00 0.00 0.00 51 1009.1
20260506041736 73 217 7.0 14.0 0.00 0.00 0.00 51 1009.2